FW3884 Weather Reports


time (UTC)temp
C
wind
direction
speed
KPH
gust
KPH
rain 1hr
cm
rain 24hr
cm
rain mn
cm
humidity
%
barometer
mb
20260503010011 6 0.0 0.0 0.00 0.00 0.00 62 1012.9
20260503004511 6 0.0 0.0 0.00 0.00 0.00 60 1012.7
20260503003009 7 0.0 0.0 0.00 0.00 0.00 59 1012.6
20260503001512 7 0.0 0.0 0.00 0.00 0.00 58 1012.3
20260503000008 8 0.0 0.0 0.00 0.00 0.00 55 1012.1
20260502234508 8 0.0 0.0 0.00 0.00 0.00 53 1011.8
20260502233007 8 0.0 0.0 0.00 0.00 0.00 52 1011.1
20260502231507 10 0.0 0.0 0.00 0.00 0.00 52 1011.1
20260502230016 10 0.0 0.0 0.00 0.00 0.00 49 1011.2
20260502224507 10 0.0 0.0 0.00 0.00 0.00 49 1011.1
20260502223006 10 0.0 0.0 0.00 0.00 0.00 50 1011.0
20260502221506 11 0.0 0.0 0.00 0.00 0.00 47 1010.8
20260502220006 11 0.0 0.0 0.00 0.00 0.00 49 1010.7
20260502214504 12 0.0 0.0 0.00 0.00 0.00 48 1010.6
20260502213004 12 0.0 0.0 0.00 0.00 0.00 45 1010.5
20260502211507 12 0.0 0.0 0.00 0.00 0.00 45 1010.4
20260502210005 14 0.0 0.0 0.00 0.00 0.00 43 1010.1
20260502204502 15 0.0 0.0 0.00 0.00 0.00 40 1009.9
20260502203002 15 0.0 0.0 0.00 0.00 0.00 39 1009.8
20260502201502 15 0.0 0.0 0.00 0.00 0.00 41 1010.0
20260502200100 15 0.0 0.0 0.00 0.00 0.00 42 1010.1
20260502194558 15 0.0 0.0 0.00 0.00 0.00 43 1010.3
20260502193104 15 0.0 0.0 0.00 0.00 0.00 42 1010.4
20260502191602 15 0.0 0.0 0.00 0.00 0.00 40 1010.4
20260502190109 15 0.0 0.0 0.00 0.00 0.00 42 1010.5
20260502184600 15 0.0 0.0 0.00 0.00 0.00 43 1010.5
20260502183108 15 0.0 0.0 0.00 0.00 0.00 40 1010.7
20260502181548 13 0.0 0.0 0.00 0.00 0.00 43 1010.9
20260502163032 11 0.0 0.0 0.00 0.00 0.00 48 1012.6
20260502161530 10 0.0 0.0 0.00 0.00 0.00 48 1012.6
20260502151523 7 0.0 0.0 0.00 0.00 0.00 59 1012.7
20260502123021 5 0.0 0.0 0.00 0.00 0.00 63 1011.8
20260502121515 5 0.0 0.0 0.00 0.00 0.00 63 1011.5
20260502114512 5 0.0 0.0 0.00 0.00 0.00 64 1011.9
20260502113011 5 0.0 0.0 0.00 0.00 0.00 64 1011.5
20260502111516 5 0.0 0.0 0.00 0.00 0.00 66 1011.4
20260502110012 5 0.0 0.0 0.00 0.00 0.00 70 1011.3
20260502104504 5 0.0 0.0 0.00 0.00 0.00 74 1011.2
20260502103003 6 0.0 0.0 0.00 0.00 0.00 76 1011.3
20260502101502 6 0.0 0.0 0.00 0.00 0.00 78 1011.5
20260502090113 6 0.0 0.0 0.00 0.00 0.00 83 1011.7
20260502070049 7 0.0 0.0 0.00 0.00 0.00 79 1011.2
20260502064543 7 0.0 0.0 0.00 0.00 0.00 79 1011.5
20260502063042 7 0.0 0.0 0.00 0.00 0.00 79 1011.8
20260502061542 7 0.0 0.0 0.00 0.00 0.00 80 1011.9
20260502060038 7 0.0 0.0 0.00 0.00 0.00 80 1012.0
20260502054536 8 0.0 0.0 0.00 0.00 0.00 81 1011.9
20260502053036 8 0.0 0.0 0.00 0.00 0.00 81 1011.9
20260502051543 8 0.0 0.0 0.00 0.00 0.00 80 1011.8
20260502050037 8 0.0 0.0 0.00 0.00 0.00 80 1012.0
20260502044531 8 0.0 0.0 0.00 0.00 0.00 80 1012.1
20260502043028 8 0.0 0.0 0.00 0.00 0.00 79 1012.4
20260502041533 9 0.0 0.0 0.00 0.00 0.00 80 1012.3
20260502040024 9 0.0 0.0 0.00 0.00 0.00 82 1012.3
20260502034522 9 0.0 0.0 0.00 0.00 0.00 84 1012.2
20260502033026 10 0.0 0.0 0.00 0.00 0.00 84 1012.4
20260502031522 10 0.0 0.0 0.00 0.00 0.00 83 1012.0
20260502030022 10 0.0 0.0 0.00 0.00 0.00 82 1012.1
20260502024520 10 0.0 0.0 0.00 0.00 0.00 81 1012.0
20260502023020 10 0.0 0.0 0.00 0.00 0.00 80 1012.0
20260502021520 10 0.0 0.0 0.00 0.00 0.00 80 1011.8
20260502020020 10 0.0 0.0 0.00 0.00 0.00 79 1011.7
20260502014526 11 0.0 0.0 0.00 0.00 0.00 77 1011.5
20260502013018 11 0.0 0.0 0.00 0.00 0.00 76 1011.4
20260502011518 11 0.0 0.0 0.00 0.00 0.00 74 1011.5